Regional Weather Roundup
Issued by NWS

Home | Current Version | Previous Version | Text Only | Print | Product List | Glossary On
Versions: 1 2 3 4 5 6 7 8 9 10 11 12 13 14 15 16 17 18 19 20 21 22 23 24 25 26 27 28 29 30 31 32 33 34 35 36 37 38 39 40 41 42 43 44 45 46 47 48 49 50
227
ASUS43 KMPX 101201
RWRMN
WEATHER ROUNDUP FOR MINNESOTA
NATIONAL WEATHER SERVICE TWIN CITIES/CHANHASSEN MN
600 AM CST SAT DEC 10 2016


NOTE: "FAIR" INDICATES FEW OR NO CLOUDS BELOW 12,000 FEET WITH NO
SIGNIFICANT WEATHER AND/OR OBSTRUCTIONS TO VISIBILITY. N/A MEANS
CURRENT SKY AND/OR WEATHER CONDITIONS ARE NOT AVAILABLE.

MNZ060>063-068>070-101300-
   Twin Cities Metro

CITY           SKY/WX    TMP DP  RH WIND       PRES   REMARKS
TWIN CITIES    CLEAR      4  -1  80 W6        30.50S WCI  -7
6HR MIN TEMP:   4; 6HR MAX TEMP:  10;

ST PAUL        PTCLDY     5   0  79 W6        30.52S WCI  -6
CRYSTAL        CLEAR      3  -3  76 W3        30.49R
BLAINE         CLEAR      3   0  85 W5        30.48R WCI  -6
LAKEVILLE      CLEAR      1  -2  85 SW3       30.50R
EDEN PRAIRIE   CLEAR      3  -2  79 W5        30.50R WCI  -6
6HR MIN TEMP:   3; 6HR MAX TEMP:   9;

SOUTH ST PAUL  CLEAR      5   0  81 CALM      30.50R
LAKE ELMO      FAIR       5   1  85 W3        30.50R
$$
MNZ001>005-007-008-013>017-022>024-027-028-101300-
   Northwest Minnesota

CITY           SKY/WX    TMP DP  RH WIND       PRES   REMARKS
BEMIDJI        CLOUDY   -12 -16  83 CALM      30.43F FOG
HALLOCK        CLOUDY   -11 -17  77 CALM      30.51F
ROSEAU         CLOUDY    -9 -17  70 W5        30.47S WCI -21
WARROAD        CLOUDY   -13 -17  84 CALM      30.46S
THIEF RVR FALL CLOUDY    -7 -10  87 N5        30.48F WCI -18
CROOKSTON      CLOUDY    -2  -8  78 N6        30.51F WCI -14
FOSSTON        CLOUDY   -17 -20  83 CALM      30.45F
DETROIT LAKES  CLOUDY   -11 -15  84 CALM      30.46S
MOORHEAD       MIX PCPN  -9 -15  77 CALM      30.52S
PARK RAPIDS    CLOUDY   -11 -20  64 N3        30.41F
$$
MNZ006-009>011-018-025>026-101300-
   North Central Minnesota

CITY           SKY/WX    TMP DP  RH WIND       PRES   REMARKS
BAUDETTE       CLEAR    -11 -17  75 CALM      30.43S
FLAG ISLAND    CLOUDY    -6  -9  84 W7        30.44S WCI -20
INTL FALLS     CLEAR     -9 -13  83 W5        30.42S WCI -20
6HR MIN TEMP:  -9; 6HR MAX TEMP:  -4;

WASKISH        CLOUDY    -4  -8  84 NW6       30.44S WCI -16
BIG FORK       PTCLDY    -9 -15  77 CALM      30.43R
LONGVILLE      LGT SNOW   0  -6  78 CALM      30.42F
GRAND RAPIDS   FLURRIES   0  -6  76 NW7       30.44S WCI -13
CRANE LAKE     PTCLDY   -11 -15  84 CALM      30.45S
ORR            CLEAR     -9 -15  77 CALM      30.39R
COOK           CLEAR     -8  -9  92 CALM      30.42R
$$
MNZ012-019>021-037-101300-
   Northeast Minnesota

CITY           SKY/WX    TMP DP  RH WIND       PRES   REMARKS
DULUTH         LGT SNOW   3  -2  79 N5        30.40R WCI  -6
6HR MIN TEMP:   3; 6HR MAX TEMP:   7; 6HR PCP: TRACE;

ELY            PTCLDY    -9 -11  92 W3        30.39S
HIBBING        MOCLDY    -7 -10  87 CALM      30.41F
EVELETH        MOCLDY     0  -7  74 W6        30.42S WCI -12
DULUTH HARBOR  PTCLDY     9  -2  61 CALM      30.49S
TWO HARBORS    CLEAR      0  -8  71 CALM      30.42S
SILVER BAY     CLEAR     -2  -8  78 CALM      30.41S
GRAND MARAIS     N/A      7   0  73 VRB3      30.43S
G MARAIS ARPRT FLURRIES   0  -8  71 W5        30.30S WCI -10
$$
MNZ029>031-032-039>041-046>048-054>057-064-101300-
   West Central Minnesota

CITY           SKY/WX    TMP DP  RH WIND       PRES   REMARKS
FERGUS FALLS   CLOUDY   -13 -18  77 W3        30.55S
WHEATON        CLOUDY    -6  -9  84 W5        30.53F WCI -17
MORRIS         CLOUDY    -8 -11  84 NW5       30.49S WCI -19
ALEXANDRIA     CLOUDY    -6 -10  83 W6        30.45S WCI -19
ELBOW LAKE     FAIR     -10 -14  83 NW3       30.48F
WADENA         CLOUDY    -9 -15  77 CALM      30.43F
GLENWOOD       CLOUDY    -8 -11  84 W6        30.46F WCI -21
APPLETON       CLOUDY    -2  -8  78 NW3       30.52R
BENSON         CLOUDY    -6  -9  84 CALM      30.49F
ORTONVILLE     CLOUDY    -6 -11  77 CALM      30.51R
MADISON        PTCLDY     1  -6  71 N3        30.51S
WILLMAR        FAIR       0  -4  85 CALM      30.49F
$$
MNZ033>034-036-042>043-049>051-058-059-101300-
   Central Minnesota

CITY           SKY/WX    TMP DP  RH WIND       PRES   REMARKS
ST CLOUD       CLEAR     -2  -5  87 W6        30.49R WCI -14
6HR MIN TEMP:  -2; 6HR MAX TEMP:   3;

PAYNESVILLE    CLOUDY    -3  -6  87 W5        30.49R WCI -14
AITKIN         CLOUDY     7  -4  61 N7        30.42F WCI  -5
PINE RIVER     CLOUDY     0  -4  85 CALM      30.45S
BRAINERD       CLOUDY     2  -3  80 NW6       30.44S WCI  -9
LONG PRAIRIE   CLOUDY    -4  -8  84 CALM      30.46R
LITTLE FALLS   CLEAR     -4  -8  84 CALM      30.48R
LITCHFIELD     CLOUDY     1  -2  85 CALM      30.49S
BUFFALO        CLEAR      2  -2  83 W5        30.51R WCI  -7
MAPLE LAKE     CLEAR      2  -1  86 W5        30.50R WCI  -8
HUTCHINSON     CLOUDY     2  -1  84 W5        30.50S WCI  -7
$$
MNZ037-044-045-052-053-101300-
   East Central Minnesota

CITY           SKY/WX    TMP DP  RH WIND       PRES   REMARKS
PRINCETON      CLEAR      0  -4  85 W5        30.47S WCI -10
MORA           CLEAR      1  -4  78 CALM      30.47S
CAMBRIDGE      CLEAR      3  -4  72 CALM      30.46R
RUSH CITY      CLEAR      3   0  85 W3        30.46S
MOOSE LAKE     CLOUDY     5  -4  66 N6        30.43F WCI  -6
HINCKLEY       CLOUDY    10   1  67 N5        30.45S WCI   2
CLOQUET        CLOUDY     3  -4  72 NW7       30.42R WCI  -9
MCGREGOR       CLOUDY     3  -2  78 W3        30.44S
$$
MNZ071>073-080-081-089-090-097-098-101300-
   Southwest Minnesota

CITY           SKY/WX    TMP DP  RH WIND       PRES   REMARKS
MONTEVIDEO     CLOUDY    -2  -6  84 N3        30.52S
GRANITE FALLS  MOCLDY     2  -2  83 NW3       30.52S
CANBY          PTCLDY     1  -4  82 CALM      30.50F
MARSHALL       PTCLDY     1  -3  83 N6        30.49F WCI -10
REDWOOD FALLS  PTCLDY     2  -3  80 NW3       30.51F
OLIVIA         CLOUDY     1  -2  85 NW5       30.49F WCI  -8
PIPESTONE      CLOUDY     7   1  78 E6        30.39F WCI  -3
WINDOM         CLOUDY     5   1  85 MISG      30.45F
WORTHINGTON    FLURRIES   6   2  83 NE8       30.42F WCI  -7
JACKSON        FLURRIES   7   3  85 NE6       30.44F WCI  -3
TRACY          CLOUDY     5   1  86 CALM      30.46F
SLAYTON        FLURRIES   4   1  86 NE3       30.43F
$$
MNZ065>067-074>077-082>085-091>093-101300-
   South Central Minnesota

CITY           SKY/WX    TMP DP  RH WIND       PRES   REMARKS
MANKATO        CLOUDY     3  -1  83 NW3       30.51S
NEW ULM          N/A      1  -2  85 N3        30.50F
ST JAMES       CLOUDY     5   1  85 N5        30.50F WCI  -4
FAIRMONT       FLURRIES   7   2  80 NE7       30.48F WCI  -5
GLENCOE        CLOUDY     4   1  88 CALM      30.50R
FARIBAULT      CLEAR      3   0  85 W3        30.50R
OWATONNA       PTCLDY     3   0  85 W3        30.49R
WASECA         CLOUDY     3   0  85 CALM      30.50S
ALBERT LEA     CLOUDY    10   7  85 N6        30.47S WCI   1
$$
MNZ078>079-086>088-094>096-101300-
   Southeast Minnesota

CITY           SKY/WX    TMP DP  RH WIND       PRES   REMARKS
ROCHESTER      PTCLDY     2   0  91 NW6       30.46R WCI  -9
6HR MIN TEMP:   2; 6HR MAX TEMP:   9; 6HR PCP: TRACE;

RED WING       CLEAR      7   1  78 NW3       30.49S
STANTON        CLEAR      4  -1  82 SW5       30.50R WCI  -6
DODGE CENTER   CLEAR      3   0  85 NW3       30.46R
WINONA           N/A     10   5  79 W3        30.52R
AUSTIN         CLOUDY     7   3  85 NW7       30.47R WCI  -5
PRESTON        CLOUDY     5   1  84 NW3       30.46S
$$
ABBREVIATIONS USED IN REMARKS
   TC - TEMPERATURES IN CELSIUS
  WCI - WIND CHILL INDEX
   HX - HEAT INDEX
  VSB - VISIBILITY
$$




USA.gov is the U.S. government's official web portal to all federal, state and local government web resources and services.